Orbital elements:
2012 AE3 Earth MOID = 0.2636 AU
Epoch 2012 Mar. 14.0 TT = JDT 2456000.5 MPC
M 321.03874 (2000.0) P Q
n 0.57952274 Peri. 290.75587 -0.63918537 +0.42314249
a 1.4248060 Node 279.73905 -0.18819372 -0.89569810
e 0.1864439 Incl. 40.65993 -0.74567096 -0.13665777
P 1.70 H 20.0 G 0.15 U 8